Temp
76 76 76 76 78 82 80 78 80 82 77 84 82 85 88 88 86 84 80 82 82 82 82 82 82 82 82 82 82 82 81 81 81 80 80 80 80 80 80 80 80 80 79
78 81 79 78 73 78 82 83 82 83 82 84 82 84 84 86 85 83 82 80 82 82 82 82 82 82 82 82 82 81 82 81 81 81 81 80 80 80 80 80 80 79 79
81 81 77 83 84 79 84 83 86 85 82 85 82 82 86 86 84 83 83 82 81 82 82 82 82 82 82 82 82 82 81 81 80 80 80 80 80 80 80 80 79 79 78
84 77 76 74 82 84 82 80 82 83 82 81 80 78 80 86 83 84 84 84 82 84 82 82 81 81 82 82 82 82 81 81 81 80 80 80 80 80 79 79 78 78 78
89 76 74 75 84 78 83 82 83 83 81 82 81 79 82 83 84 88 84 84 84 81 81 81 80 81 82 83 82 82 82 81 81 80 80 80 79 79 79 78 78 77 77
89 84 82 86 86 79 81 85 81 84 81 80 89 85 82 84 83 84 86 87 84 83 84 80 78 80 80 82 82 82 82 82 81 81 80 79 79 78 78 77 77 77 78
88 85 83 85 82 76 80 82 84 82 81 83 79 80 81 86 86 84 85 85 87 86 84 82 80 82 80 80 81 81 82 82 81 80 79 78 78 77 77 77 77 77 77
87 87 85 86 80 77 81 81 74 77 82 82 78 76 74 77 82 86 85 87 87 87 87 87 83 83 81 79 79 80 81 81 81 80 79 78 78 77 77 76 77 77 77
86 86 85 86 84 82 82 82 78 80 78 79 83 78 73 70 75 81 84 83 84 83 84 85 85 83 83 81 79 79 79 79 80 80 80 79 78 78 77 77 76 76 76
88 87 87 87 85 77 83 83 84 81 77 78 81 85 81 80 73 72 80 82 84 87 85 83 85 84 83 82 82 80 78 78 78 80 80 80 78 78 78 77 77 76 76
88 89 86 86 83 82 82 83 83 83 80 78 79 80 81 80 79 76 73 77 81 83 83 83 85 83 83 83 80 78 78 77 77 78 79 79 79 79 79 79 78 77 77
87 87 86 85 85 83 83 83 84 84 82 81 80 80 80 78 79 77 76 78 78 81 83 83 84 84 83 83 88 83 78 76 76 76 76 77 78 79 80 80 80 79 78
87 85 85 83 84 85 85 83 83 84 84 83 83 81 80 81 81 81 79 78 78 80 81 84 84 84 89 83 84 80 78 75 74 74 74 75 76 77 78 79 80 80 80
86 85 86 85 85 85 84 84 84 84 83 83 83 82 81 82 84 83 80 78 75 78 80 82 85 84 84 84 85 79 79 74 73 72 72 73 73 74 75 76 77 77 78
89 86 86 86 86 85 85 82 82 81 82 83 82 83 82 82 83 84 83 82 78 73 75 80 81 86 85 85 84 81 81 75 73 72 71 70 71 72 73 74 74 74 75
87 84 85 85 86 86 86 84 83 83 81 81 84 81 82 82 83 85 84 82 81 78 74 80 82 85 85 90 85 84 85 81 73 72 70 70 71 71 72 72 73 73 73
87 87 87 86 85 85 86 84 83 84 83 82 84 84 81 82 83 83 83 82 81 81 76 79 82 83 83 83 84 83 84 83 83 73 71 70 69 70 71 71 71 71 71
86 86 85 86 85 85 85 84 83 85 83 83 83 83 84 87 82 82 82 80 82 82 79 76 79 79 81 82 82 81 85 91 85 84 73 70 69 69 68 68 68 68 68
85 87 86 84 84 85 84 84 84 83 83 84 84 83 83 83 81 82 82 81 81 82 80 78 78 81 81 83 82 82 82 82 87 83 77 73 70 69 68 66 66 65 64
84 85 85 85 85 85 85 85 85 84 84 85 85 84 84 83 82 82 82 80 82 81 80 79 79 80 81 82 82 80 80 82 82 92 87 83 80 72 69 66 66 65 61
85 85 84 85 85 86 89 84 85 84 83 83 84 85 85 84 79 79 84 81 81 81 81 80 80 80 79 79 78 80 79 81 83 83 85 85 87 88 87 73 72 69 65
84 84 84 84 84 89 79 75 82 85 84 83 82 83 85 78 79 74 72 72 77 79 78 78 79 78 77 78 79 80 80 79 76 82 82 82 85 85 86 86 79 71 68
84 83 83 84 83 85 73 72 74 86 84 84 83 83 85 91 80 85 75 72 71 71 72 79 77 77 77 78 79 78 78 78 78 82 81 79 84 83 85 91 72 70 68
83 83 83 83 84 85 72 68 71 83 84 84 84 84 83 83 83 83 84 83 81 81 79 78 77 79 80 81 80 81 79 79 81 83 81 76 83 81 83 85 75 73 69
83 83 84 83 83 84 69 68 69 80 83 82 84 84 84 83 77 72 80 80 81 82 78 69 70 70 70 69 73 78 78 77 77 80 81 78 78 79 80 81 80 74 68
84 86 85 85 80 83 69 65 69 85 82 83 82 82 72 79 71 64 78 81 79 80 82 83 83 78 67 73 66 71 78 75 76 75 79 75 77 76 72 78 81 79 81
MSLP
1019.67 1019.98 1019.70 1019.64 1019.95 1019.76 1019.64 1019.71 1019.25 1020.00 1020.73 1019.56 1019.68 1019.55 1019.19 1019.74 1020.63 1021.29 1021.90 1022.17 1022.35 1022.51 1022.59 1022.74 1022.83 1022.95 1022.94 1023.03 1023.13 1023.26 1023.30 1023.13 1023.10 1023.15 1023.05 1022.97 1023.00 1022.95 1022.89 1022.82 1022.67 1022.60 1022.49
1018.84 1019.07 1019.34 1019.48 1019.97 1019.29 1019.61 1019.37 1019.29 1019.44 1019.65 1020.18 1020.13 1020.18 1019.90 1020.09 1020.79 1021.34 1021.93 1022.27 1022.47 1022.55 1022.65 1022.68 1022.79 1022.89 1022.93 1023.07 1023.17 1023.32 1023.22 1023.21 1023.28 1023.19 1023.01 1023.01 1022.97 1022.96 1022.91 1022.77 1022.70 1022.57 1022.49
1018.83 1019.15 1019.70 1019.25 1019.21 1019.27 1019.21 1019.03 1018.76 1019.10 1019.64 1019.49 1020.28 1020.47 1020.21 1020.25 1020.81 1021.12 1021.54 1021.95 1022.35 1022.53 1022.57 1022.58 1022.57 1022.71 1022.82 1022.98 1023.12 1023.17 1023.14 1023.20 1023.17 1023.11 1023.05 1023.07 1022.99 1022.89 1022.83 1022.73 1022.63 1022.55 1022.62
1019.09 1019.33 1019.48 1019.86 1019.41 1019.38 1018.93 1019.36 1019.31 1019.47 1019.74 1019.99 1020.37 1020.47 1020.59 1020.31 1020.82 1020.95 1021.11 1021.42 1021.85 1022.01 1022.35 1022.39 1022.48 1022.58 1022.75 1022.87 1023.03 1023.04 1023.02 1023.09 1023.09 1023.04 1023.09 1023.01 1022.89 1022.79 1022.79 1022.74 1022.71 1022.67 1022.67
1018.80 1019.77 1019.44 1019.61 1019.08 1019.58 1019.40 1019.36 1019.42 1019.42 1019.54 1020.03 1020.27 1020.57 1020.47 1020.38 1020.54 1020.53 1020.82 1020.96 1021.23 1021.54 1021.98 1022.13 1022.29 1022.47 1022.54 1022.61 1022.66 1022.71 1022.81 1022.89 1022.94 1022.97 1022.92 1022.81 1022.75 1022.70 1022.67 1022.73 1022.74 1022.78 1022.77
1018.71 1018.74 1019.19 1018.65 1019.18 1019.72 1019.68 1019.26 1019.49 1019.61 1019.93 1019.82 1020.00 1020.29 1020.32 1020.12 1020.26 1020.09 1020.19 1020.73 1020.74 1021.26 1021.38 1021.73 1022.14 1022.45 1022.42 1022.43 1022.49 1022.55 1022.58 1022.69 1022.84 1022.85 1022.84 1022.89 1022.77 1022.67 1022.72 1022.79 1022.83 1022.83 1022.77
1018.56 1019.00 1019.22 1019.13 1019.26 1019.74 1019.63 1019.71 1019.69 1019.75 1019.93 1019.80 1020.20 1020.15 1020.23 1020.12 1020.03 1020.15 1019.96 1020.16 1020.06 1020.61 1020.86 1021.25 1021.63 1021.83 1022.08 1022.30 1022.39 1022.46 1022.49 1022.65 1022.76 1022.81 1022.89 1022.90 1022.79 1022.74 1022.78 1022.85 1022.83 1022.82 1022.77
1018.44 1018.73 1018.91 1018.84 1019.51 1019.85 1019.83 1019.95 1019.89 1020.45 1020.01 1019.91 1020.39 1020.68 1020.74 1020.48 1020.20 1019.90 1019.94 1020.12 1020.01 1020.13 1020.45 1020.69 1021.06 1021.26 1021.44 1021.95 1022.13 1022.25 1022.34 1022.52 1022.61 1022.69 1022.71 1022.81 1022.85 1022.82 1022.84 1022.83 1022.76 1022.71 1022.61
1018.25 1018.60 1018.84 1018.80 1019.09 1019.53 1019.74 1020.03 1020.18 1020.41 1020.45 1020.18 1020.19 1020.57 1020.82 1020.81 1020.41 1020.10 1020.07 1020.32 1020.15 1020.21 1020.37 1020.39 1020.58 1020.83 1021.01 1021.50 1021.75 1021.97 1022.15 1022.34 1022.43 1022.46 1022.57 1022.65 1022.73 1022.69 1022.66 1022.59 1022.51 1022.43 1022.40
1017.85 1018.25 1018.59 1018.85 1019.15 1019.67 1019.84 1019.76 1019.97 1020.33 1020.28 1020.45 1020.23 1020.15 1020.32 1020.54 1020.67 1020.81 1020.40 1020.26 1020.06 1020.14 1020.23 1020.22 1020.32 1020.45 1020.71 1020.89 1021.23 1021.42 1021.69 1021.97 1022.21 1022.31 1022.32 1022.39 1022.46 1022.38 1022.29 1022.23 1022.23 1022.23 1022.12
1017.56 1017.91 1018.40 1018.72 1019.21 1019.50 1019.47 1019.68 1019.71 1020.19 1020.47 1020.48 1020.37 1020.06 1020.18 1020.31 1020.29 1020.41 1020.47 1020.26 1020.01 1019.83 1020.01 1019.78 1019.89 1020.11 1020.30 1020.37 1020.79 1020.93 1021.12 1021.46 1021.73 1021.92 1021.95 1021.99 1022.01 1021.97 1021.84 1021.76 1021.78 1021.77 1021.76
1017.47 1017.75 1018.23 1018.51 1018.81 1019.07 1019.44 1019.56 1019.57 1019.81 1020.13 1020.15 1020.11 1019.99 1019.89 1020.18 1020.14 1020.13 1020.09 1019.83 1019.95 1019.69 1019.61 1019.58 1019.55 1019.66 1019.95 1019.91 1019.93 1020.26 1020.66 1020.89 1021.20 1021.37 1021.47 1021.51 1021.49 1021.44 1021.30 1021.16 1021.14 1021.17 1021.25
1017.04 1017.26 1017.67 1018.46 1018.65 1018.82 1019.13 1019.35 1019.64 1019.70 1019.81 1019.99 1019.98 1019.98 1020.00 1019.97 1019.74 1019.71 1019.59 1019.81 1019.65 1019.51 1019.41 1019.24 1019.05 1019.14 1019.14 1019.31 1019.51 1019.62 1019.99 1020.26 1020.49 1020.65 1020.78 1020.88 1020.90 1020.89 1020.76 1020.61 1020.53 1020.59 1020.62
1016.26 1016.57 1017.11 1017.81 1018.21 1018.65 1018.88 1019.23 1019.49 1019.60 1019.65 1019.81 1019.89 1019.93 1020.03 1019.85 1019.54 1019.56 1019.77 1019.91 1019.90 1019.63 1019.25 1019.07 1018.73 1018.67 1018.69 1018.71 1018.83 1019.29 1019.64 1019.82 1019.93 1020.03 1020.11 1020.19 1020.33 1020.34 1020.26 1020.09 1019.98 1020.03 1020.10
1015.93 1016.21 1016.78 1017.41 1017.72 1018.12 1018.50 1018.95 1019.36 1019.45 1019.54 1019.82 1019.92 1019.96 1020.00 1019.81 1019.68 1019.44 1019.53 1019.69 1019.97 1020.03 1019.75 1019.32 1018.88 1018.15 1018.33 1018.31 1018.44 1018.78 1019.00 1019.19 1019.37 1019.47 1019.54 1019.55 1019.47 1019.32 1019.11 1018.95 1018.90 1018.99 1019.15
1015.59 1016.39 1016.61 1016.97 1017.31 1017.67 1017.95 1018.56 1018.89 1019.05 1019.40 1019.72 1019.61 1019.81 1019.87 1019.77 1019.53 1019.39 1019.44 1019.52 1019.63 1019.85 1019.91 1019.30 1018.99 1018.51 1018.16 1017.99 1018.15 1018.38 1018.39 1018.30 1018.53 1018.54 1018.49 1018.35 1018.13 1017.99 1017.85 1017.76 1017.76 1017.88 1018.01
1015.33 1015.69 1016.22 1016.58 1017.02 1017.42 1017.76 1018.19 1018.55 1018.68 1018.87 1019.15 1019.21 1019.25 1019.47 1019.54 1019.47 1019.35 1019.33 1019.32 1019.43 1019.50 1019.69 1019.25 1018.83 1018.52 1018.37 1018.36 1018.16 1017.98 1017.73 1017.56 1017.51 1017.41 1017.28 1017.19 1017.10 1016.89 1016.73 1016.82 1016.80 1016.68 1016.83
1015.15 1015.36 1015.79 1016.25 1016.69 1017.07 1017.41 1017.76 1018.15 1018.25 1018.51 1018.75 1018.83 1019.00 1019.06 1019.19 1019.26 1019.23 1019.23 1019.31 1019.29 1019.21 1019.43 1019.35 1019.07 1018.89 1018.51 1018.11 1017.63 1017.57 1017.02 1016.65 1016.54 1016.32 1016.14 1016.12 1015.86 1015.73 1015.68 1015.65 1015.36 1015.43 1015.58
1014.58 1015.01 1015.35 1015.82 1016.26 1016.67 1017.00 1017.25 1017.60 1017.97 1018.14 1018.23 1018.40 1018.49 1018.66 1018.78 1018.95 1018.92 1018.99 1019.01 1019.01 1018.93 1019.05 1019.14 1018.93 1018.45 1018.03 1017.57 1017.21 1016.83 1016.63 1016.23 1016.08 1015.65 1015.17 1014.96 1014.79 1014.61 1014.41 1014.39 1014.20 1014.45 1014.50
1013.99 1014.41 1014.83 1015.25 1015.71 1016.12 1016.45 1016.71 1016.97 1017.36 1017.63 1017.76 1017.78 1017.96 1018.05 1018.19 1018.34 1018.53 1018.64 1018.73 1018.83 1018.90 1018.88 1018.82 1018.59 1018.25 1017.82 1017.05 1016.77 1016.88 1016.71 1016.19 1015.66 1015.08 1014.71 1014.45 1013.91 1013.61 1013.59 1013.72 1013.60 1013.64 1013.83
1013.19 1013.74 1014.20 1014.59 1015.07 1015.45 1015.77 1016.12 1016.37 1016.61 1016.98 1017.23 1017.34 1017.46 1017.53 1017.64 1017.76 1017.91 1018.16 1018.30 1018.41 1018.51 1018.50 1018.40 1018.20 1017.84 1017.58 1017.21 1017.13 1016.86 1016.57 1016.21 1015.66 1015.30 1014.73 1014.27 1013.74 1013.27 1012.82 1012.55 1012.60 1012.45 1012.27
1012.39 1012.92 1013.37 1013.82 1014.17 1014.55 1014.81 1015.21 1015.71 1016.07 1016.22 1016.55 1016.80 1016.98 1016.99 1017.07 1017.19 1017.34 1017.53 1017.74 1017.83 1018.00 1018.13 1018.19 1018.02 1017.85 1017.58 1017.51 1017.17 1017.05 1016.78 1016.18 1015.48 1015.01 1014.56 1014.05 1013.57 1012.97 1012.40 1011.98 1011.41 1011.08 1011.07
1011.63 1012.00 1012.43 1012.88 1013.29 1013.63 1013.94 1014.32 1014.78 1015.23 1015.49 1015.67 1015.95 1016.27 1016.47 1016.45 1016.57 1016.69 1016.82 1016.93 1017.01 1017.08 1017.14 1017.36 1017.54 1017.39 1017.27 1017.15 1017.00 1016.65 1016.35 1015.98 1015.43 1014.69 1014.65 1013.70 1013.18 1012.61 1012.02 1011.34 1011.35 1010.99 1010.84
1010.81 1011.25 1011.63 1011.95 1012.36 1012.70 1013.16 1013.57 1013.95 1014.45 1014.69 1014.84 1015.08 1015.32 1015.60 1015.75 1015.85 1015.99 1016.15 1016.24 1016.32 1016.22 1016.15 1016.31 1016.48 1016.36 1016.27 1016.17 1016.06 1015.80 1015.69 1015.37 1014.82 1014.13 1013.84 1013.55 1013.01 1012.50 1011.90 1011.44 1011.04 1010.83 1010.38
1009.90 1010.31 1010.67 1011.08 1011.42 1011.79 1012.26 1012.82 1013.45 1013.96 1013.99 1014.08 1014.26 1014.46 1014.71 1015.05 1015.21 1015.47 1015.70 1015.74 1015.60 1015.33 1014.93 1015.37 1015.41 1015.35 1015.27 1015.31 1015.25 1015.33 1015.23 1015.11 1014.51 1013.88 1013.49 1013.46 1012.97 1012.67 1012.04 1011.35 1010.78 1010.62 1010.48
1008.70 1009.29 1009.63 1010.02 1010.49 1010.97 1011.43 1011.91 1012.55 1013.06 1013.25 1013.41 1013.67 1013.80 1014.01 1014.31 1014.58 1014.75 1015.03 1015.05 1015.01 1014.83 1014.68 1014.53 1014.79 1014.81 1014.84 1014.58 1014.61 1014.83 1014.49 1014.46 1014.28 1013.81 1013.26 1013.44 1013.06 1012.91 1011.96 1011.20 1011.37 1010.66 1010.33
Wind_Speed
6 5 5 2 2 2 2 3 4 6 5 3 8 6 5 11 12 7 5 12 10 9 10 9 8 7 6 5 3 4 3 2 2 3 3 4 5 7 8 8 8 9 8
2 3 2 5 6 2 3 5 5 6 5 4 7 4 4 10 11 11 7 6 10 9 10 8 7 6 5 4 2 2 1 2 3 4 4 4 6 7 8 8 8 8 8
2 2 3 3 4 4 2 2 4 5 4 4 5 3 2 6 7 8 7 7 7 9 9 9 8 7 5 4 3 3 3 3 4 4 5 5 6 6 7 6 7 7 6
7 3 3 3 5 3 3 0 4 1 2 8 5 4 3 5 8 6 5 7 6 7 8 10 10 9 8 6 4 5 6 5 5 6 6 6 6 6 6 6 5 4 5
3 8 2 5 2 3 1 3 2 2 2 4 5 5 5 4 7 7 7 5 7 8 6 11 12 10 9 9 7 6 5 5 5 5 5 4 4 4 2 2 3 4 5
4 4 2 2 2 3 5 3 2 2 2 3 6 6 4 3 4 4 5 8 8 8 8 7 5 5 10 9 7 5 5 5 4 3 3 1 1 1 2 3 3 3 4
4 4 2 3 3 5 2 5 1 1 1 2 1 3 3 3 3 5 5 5 4 13 8 7 5 5 5 9 7 7 6 5 4 2 1 1 1 2 3 3 3 3 3
6 5 4 3 7 1 4 5 5 3 3 3 2 2 1 3 4 3 3 3 3 4 5 4 8 5 5 6 7 9 6 5 5 5 5 4 3 3 4 4 5 5 4
7 3 4 1 2 2 3 4 5 5 2 2 4 1 2 0 2 2 1 3 3 2 5 6 6 6 3 6 8 8 9 8 8 8 7 6 6 6 6 7 7 7 7
6 8 5 3 1 1 2 3 2 1 1 2 1 3 3 2 2 2 3 5 4 4 3 4 5 7 6 5 9 12 13 11 10 9 9 9 9 9 10 10 10 10 10
6 7 7 5 5 3 4 1 1 1 3 4 1 2 2 4 4 3 2 2 3 4 5 3 5 6 7 6 6 8 15 13 13 12 12 12 12 14 14 14 14 13 13
6 5 8 5 4 4 6 4 3 3 2 3 2 3 3 2 2 3 3 2 5 3 4 5 4 3 5 5 6 12 16 15 14 14 14 14 15 16 17 18 18 18 17
8 9 9 7 4 4 3 4 4 3 2 3 2 3 3 3 1 1 3 3 1 3 3 4 5 5 4 5 6 12 17 16 16 16 15 15 16 17 18 19 19 20 20
9 11 9 10 9 6 6 4 4 4 5 3 5 2 3 5 1 1 2 3 4 3 1 3 3 5 5 5 4 13 9 15 16 16 16 17 16 17 18 20 20 20 20
1 13 11 9 8 8 7 8 5 6 4 3 5 3 2 5 4 2 2 1 1 3 3 3 2 3 3 4 6 6 7 13 17 17 17 17 18 20 22 23 22 22 21
6 10 12 10 8 7 6 7 6 6 7 6 5 7 5 4 5 2 1 2 2 2 3 1 3 2 4 2 5 6 6 9 15 18 19 21 23 24 24 25 25 24 23
6 6 6 8 9 8 7 6 7 5 7 7 5 4 7 7 4 4 1 3 3 3 3 4 2 4 3 3 5 6 6 6 7 16 20 21 22 24 25 24 24 25 24
10 7 8 6 7 8 8 8 9 8 8 7 6 6 5 6 6 5 3 5 3 1 1 4 2 4 6 7 8 7 7 9 7 11 14 19 21 23 23 25 26 25 24
10 11 9 10 8 9 8 9 9 10 8 9 9 9 8 6 6 4 5 4 4 4 4 3 5 4 5 5 6 7 6 8 6 13 19 18 19 21 22 23 25 21 22
15 13 11 11 11 11 10 10 11 10 10 9 8 8 7 7 8 7 7 6 5 5 5 4 5 6 6 7 3 2 4 3 5 6 9 12 16 14 19 19 21 19 18
15 15 14 13 13 12 11 12 11 11 11 11 9 8 8 9 10 9 7 6 6 6 6 6 7 4 3 4 5 4 4 6 9 6 8 6 9 9 9 12 14 18 22
17 16 16 15 14 12 15 16 14 11 11 11 10 10 8 10 14 14 12 11 8 6 8 6 7 8 6 6 4 7 9 9 8 5 5 11 8 9 8 7 13 12 16
16 17 17 16 16 16 15 18 19 13 12 11 11 10 10 10 11 11 15 17 14 14 14 11 12 11 11 10 8 9 8 8 9 9 9 12 7 7 7 9 8 9 10
17 16 16 17 16 14 16 15 17 15 12 12 12 11 11 12 10 7 12 11 11 12 12 9 12 14 12 11 10 10 10 9 8 9 8 8 8 10 6 9 12 15 14
16 16 16 17 17 15 18 18 13 11 14 13 12 10 9 12 14 14 10 9 8 7 8 14 13 14 16 16 14 7 9 8 9 9 4 5 3 8 6 9 5 11 12
16 14 17 17 17 16 15 19 16 11 12 10 11 12 14 16 13 10 11 11 11 10 9 9 7 8 9 9 15 10 6 7 7 6 2 3 5 4 5 3 9 6 8
Wind_Direction
144 149 178 111 261 108 169 210 227 155 197 340 15 18 34 79 113 117 122 130 133 135 140 136 135 130 130 130 123 117 93 91 50 50 11 355 353 350 352 355 355 360 2
28 57 236 110 248 104 247 183 198 126 160 147 80 28 309 93 120 127 138 147 151 150 146 150 150 151 157 153 133 134 285 321 334 334 330 336 339 344 345 342 347 349 359
117 310 3 340 144 134 324 347 283 93 183 120 118 179 169 81 107 107 142 153 157 168 168 170 172 175 183 187 191 213 245 272 285 292 304 326 330 326 328 337 344 351 12
134 85 58 355 298 231 154 274 298 269 134 114 111 76 294 129 134 142 168 166 174 171 184 188 191 189 193 208 228 245 254 267 278 285 305 313 316 321 329 342 2 25 54
167 126 159 220 38 136 273 229 254 54 112 118 141 169 217 136 146 167 196 156 184 156 184 195 199 201 204 205 211 219 233 252 263 278 284 293 316 321 334 49 68 68 72
163 63 178 128 59 21 349 88 102 11 58 151 152 128 217 141 176 188 169 171 172 166 185 183 187 201 217 218 213 218 239 245 259 277 289 320 304 156 133 120 113 108 100
155 148 268 176 77 110 315 299 154 154 247 87 65 113 87 279 189 193 182 180 184 169 182 185 171 199 192 226 211 213 221 232 241 250 253 215 171 172 173 156 152 152 142
142 162 218 206 110 187 223 69 17 2 331 77 43 39 189 313 244 228 106 175 98 147 134 150 146 165 187 180 196 203 205 215 206 207 204 202 201 202 204 186 187 191 202
162 195 198 64 186 138 211 138 189 237 347 292 141 150 41 310 294 103 154 122 139 310 145 155 170 160 186 163 160 188 194 202 209 210 210 211 208 213 215 211 210 215 221
173 157 172 177 130 98 100 221 246 128 271 341 234 192 153 174 157 13 277 162 182 192 175 187 174 171 178 177 192 179 187 195 204 213 217 218 215 218 220 222 222 223 230
170 178 157 180 163 180 217 251 257 144 209 234 263 209 175 199 197 184 249 202 217 188 176 210 204 159 174 209 166 173 180 192 201 210 217 220 221 223 226 228 229 229 230
179 211 165 176 188 209 170 183 229 239 264 332 333 309 177 187 245 255 228 173 175 198 165 201 169 185 192 198 205 183 187 194 202 209 216 222 224 227 231 233 234 236 236
185 183 162 167 192 195 208 186 220 314 251 280 290 319 344 172 250 315 22 329 121 166 192 213 188 188 207 192 202 170 192 196 202 211 215 221 227 230 235 238 239 238 241
182 173 170 168 184 188 198 179 192 216 221 205 282 311 322 313 312 359 340 14 338 338 229 213 191 188 199 197 189 179 194 209 211 216 220 222 226 232 237 241 242 243 243
83 156 170 174 183 184 197 165 222 207 167 226 216 251 269 297 308 209 274 277 255 314 321 274 275 152 172 201 193 184 208 204 219 220 223 228 228 228 231 235 237 237 238
219 170 176 179 182 193 191 179 219 189 184 206 222 195 218 252 279 246 264 282 223 233 287 299 285 257 218 234 168 191 228 244 213 225 225 227 230 232 232 234 237 237 235
219 176 177 173 178 196 198 189 220 249 201 198 240 217 199 222 270 296 292 234 233 222 233 282 303 322 340 288 261 243 232 239 246 224 229 232 233 235 238 239 241 238 241
214 193 183 191 190 194 202 201 207 233 197 216 219 228 241 207 214 257 282 282 290 284 291 284 280 290 271 269 246 233 233 241 242 252 233 230 233 236 238 239 241 237 237
201 210 191 195 198 201 209 206 205 212 244 206 212 213 219 225 236 229 234 240 256 257 253 250 265 246 251 264 269 259 242 244 255 253 255 247 239 238 237 237 241 242 235
203 207 213 202 205 203 211 213 205 207 219 239 222 227 229 223 223 222 229 242 263 279 275 273 275 269 257 262 258 317 320 296 287 312 321 301 288 242 242 244 247 248 243
201 205 207 211 205 207 209 212 216 210 211 225 234 226 229 233 233 226 227 230 233 245 253 259 261 262 306 332 323 301 311 327 309 304 303 300 316 305 297 247 244 239 239
203 203 207 211 208 210 206 200 203 218 214 215 226 239 243 225 234 236 234 244 240 249 268 275 286 285 285 299 326 315 303 300 302 273 323 301 294 289 287 284 270 248 234
205 206 207 209 212 213 206 201 200 210 215 219 217 223 233 240 224 225 230 235 240 238 230 249 260 263 272 268 274 277 276 278 285 293 291 290 296 297 303 301 346 325 297
206 208 210 212 212 213 203 202 203 209 213 216 221 222 221 234 247 233 231 232 228 235 234 228 231 246 251 254 249 254 263 267 285 289 276 299 316 302 314 316 315 302 286
205 211 212 214 215 218 197 201 185 208 218 220 225 231 224 224 229 238 249 254 260 259 237 230 238 231 232 244 251 276 275 277 278 287 312 303 305 312 304 297 290 333 331
210 209 217 216 216 216 201 200 190 215 217 221 225 232 226 234 243 223 222 231 245 249 254 268 274 255 236 238 238 219 247 261 279 291 217 330 307 331 311 249 344 319 337